Location: Peterborough
(44.3091°N, 78.3197°W)
Time: 05:23:42
(UTC-04:00)

Vanguard 3 - Visible Passes

Search period start: 22 March 2023 00:00
Search period end: 01 April 2023 00:00
Orbit: 509 x 3249 km, 33.3° (Epoch: 21 March)

Date Brightness Start Highest point End Pass type
(mag) Time Alt. Az. Time Alt. Az. Time Alt. Az.
22 Mar 11.2 01:55:14 14° SE 01:55:14 14° SE 02:02:12 10° ESE visible
22 Mar 10.6 03:59:37 28° S 04:07:18 36° SSE 04:22:03 10° E visible
22 Mar 10.2 06:04:00 11° WSW 06:22:01 53° S 06:35:36 10° E visible
23 Mar 10.8 02:47:48 26° SSE 02:49:43 26° SE 03:03:33 10° E visible
23 Mar 10.4 04:52:11 25° SW 05:03:56 47° SSE 05:19:04 10° E visible
24 Mar 11.2 01:35:55 15° ESE 01:35:55 15° ESE 01:42:29 10° ESE visible
24 Mar 10.5 03:40:17 34° S 03:45:55 39° SSE 04:01:40 10° E visible
24 Mar 10.2 05:44:40 16° WSW 06:00:50 55° S 06:15:28 10° E visible
25 Mar 10.7 02:28:20 29° SE 02:28:20 29° SE 02:43:03 10° E visible
25 Mar 10.3 04:32:41 31° SSW 04:42:33 50° SSE 04:58:42 10° E visible
25 Mar 10.2 06:38:47 10° WSW 06:57:46 57° S 07:11:28 10° ESE visible
26 Mar 11.1 01:16:18 16° ESE 01:16:18 16° ESE 01:22:13 10° E visible
26 Mar 10.3 03:20:40 38° S 03:24:25 41° SSE 03:41:03 10° E visible
26 Mar 10.2 05:25:02 21° WSW 05:39:31 57° S 05:55:10 10° E visible
27 Mar 10.6 02:08:35 30° SE 02:08:35 30° SE 02:22:16 10° E visible
27 Mar 10.2 04:12:56 37° SSW 04:21:04 52° SSE 04:38:07 10° E visible
27 Mar 10.2 06:17:20 10° WSW 06:36:31 58° S 06:51:14 10° ESE visible
28 Mar 11.1 00:56:27 16° ESE 00:56:27 16° ESE 01:01:31 10° E visible
28 Mar 10.2 03:00:48 42° SSE 03:02:52 43° SSE 03:20:12 10° E visible
28 Mar 10.2 05:05:09 26° WSW 05:18:03 58° S 05:34:40 10° ESE visible
29 Mar 10.6 01:48:39 31° SE 01:48:39 31° SE 02:01:13 10° E visible
29 Mar 10.1 03:52:59 42° SSW 03:59:30 54° SSE 04:17:19 10° E visible
29 Mar 10.2 05:57:20 13° WSW 06:15:06 58° S 06:30:48 10° ESE visible
30 Mar 11.1 00:36:26 15° ESE 00:36:26 15° ESE 00:40:31 10° E visible
30 Mar 10.1 02:40:47 45° SSE 02:41:18 45° SSE 02:59:09 10° E visible
30 Mar 10.1 04:45:07 30° WSW 04:56:30 59° S 05:13:58 10° ESE visible
31 Mar 10.6 01:28:32 30° ESE 01:28:32 30° ESE 01:39:57 10° E visible
31 Mar 10.0 03:32:53 47° SSW 03:37:54 55° SSE 03:56:21 10° E visible
31 Mar 10.2 05:37:14 16° WSW 05:53:34 58° S 06:10:10 10° ESE visible
